Content
SEND FEEDBACK

Daily
Averages
Monthly
Summary
United States of America

CASTLE HAYNE, NORTH CAROLINA


Home > North America > United States > North Carolina
Elevation: 35 feet     Latitude: 34 19N     Longitude: 077 55W

WEATHER
 
SELECT A DAY
Number of Records: 209,103;   Date Range: 1/1/95 - 9/18/14
 
SHARE

PRINT THIS DATA

[ ← Previous Day ]
WEATHER ALMANAC - MARCH 29, 2014
[ Next Day → ]
[ °C ]   °F
Weather ElementAverageHighLow
Temperature64.3 °F71.1 °F (3:53 pm)62.1 °F (3:22 am)
Dewpoint61.8 °F66 °F (2:53 pm)60.1 °F (4:53 am)
Humidity91.5 %97 % (12:08 am)81 % (9:53 pm)
Barometer29.97 in30.13 in (12:08 am)29.65 in (11:53 pm)
Wind Speed6.3 mph17.3 mph (9:39 pm)
Wind Gust25.3 mph (11:53 pm)
Weather ElementAverage
Visibility4.5 mi
Wind DirectionESE (121.3 °)

Weather ElementTotal
Precipitation5.52 in
Cooling Degree Days1.6 (Base 65)
Growing Degree Days16.6 (Base 50)
Averaged from 68 records on March 29, 2014
WEATHER CONDITIONS BREAKOUT
WIND DIRECTION BREAKOUT
WEATHER BY HOUR - MARCH 29, 2014
[ °C ]   °F
Local TimeTemperatureDewpointHumidityBarometerVisibilityWind DirectionWind SpeedGust SpeedPrecipitationEventsConditions
12:08 AM63.0 °F62.1 °F97 %30.13 in2.5 miEast (100°)3.5 mph0.04 inRainRain
12:32 AM63.0 °F61.0 °F93 %30.13 in1.8 miCalm0.10 inRainRain
12:37 AM63.0 °F62.1 °F97 %30.13 in1.2 miCalm0.14 inRainHeavy Rain
12:49 AM62.6 °F60.8 °F94 %30.12 in1.8 miEast (100°)8.1 mph0.25 inRainHeavy Rain
12:53 AM63.0 °F61.0 °F93 %30.12 in1.8 miEast (100°)8.1 mph0.29 inRainHeavy Rain
1:00 AM63.0 °F61.0 °F93 %30.12 in3.0 miEast (100°)6.9 mph0.01 inRainLight Rain
1:08 AM63.0 °F61.0 °F93 %30.11 in3.0 miEast (100°)8.1 mph0.03 inRainRain
1:25 AM63.0 °F61.0 °F93 %30.13 in1.8 miWSW (250°)10.4 mph16.1 mph0.07 inRainHeavy Rain
1:34 AM63.0 °F61.0 °F93 %30.12 in1.2 miSSW (210°)4.6 mph0.21 inRainHeavy Rain
1:42 AM63.0 °F62.1 °F97 %30.12 in1.2 miSSW (200°)4.6 mph0.33 inRainHeavy Rain
1:53 AM63.0 °F61.0 °F93 %30.12 in1.5 miSSW (210°)3.5 mph0.44 inRainHeavy Rain
2:04 AM63.0 °F61.0 °F93 %30.11 in2.0 miCalm0.06 inRainHeavy Rain
2:06 AM63.0 °F61.0 °F93 %30.11 in2.0 miCalm0.07 inRainRain
2:33 AM63.0 °F61.0 °F93 %30.11 in2.5 miCalm0.17 inRainLight Rain
2:40 AM63.0 °F61.0 °F93 %30.10 in5.0 miCalm0.18 inRainLight Rain
2:53 AM63.0 °F61.0 °F93 %30.09 in4.0 miNNW (340°)4.6 mph0.19 inRainRain
2:57 AM63.0 °F61.0 °F93 %30.09 in3.0 miWest (270°)4.6 mph0.01 inRainRain
3:00 AM63.0 °F61.0 °F93 %30.09 in2.5 miWNW (290°)3.5 mph0.03 inRainRain
3:14 AM63.0 °F61.0 °F93 %30.09 in1.8 miCalm0.07 inRainHeavy Rain
3:22 AM62.1 °F61.0 °F96 %30.09 in1.2 miCalm0.15 inRainRain
3:25 AM62.1 °F61.0 °F96 %30.09 in1.5 miCalm0.17 inRainHeavy Rain
3:28 AM62.1 °F61.0 °F96 %30.09 in1.2 miCalm0.19 inRainHeavy Rain
3:39 AM62.1 °F61.0 °F96 %30.08 in1.5 miCalm0.32 inRainHeavy Rain
3:53 AM62.1 °F61.0 °F96 %30.07 in1.0 miCalm0.36 inRainRain
3:57 AM62.1 °F61.0 °F96 %30.07 in2.0 miEast (90°)3.5 mph0.01 inRainRain
4:06 AM62.1 °F61.0 °F96 %30.07 in3.0 miCalm0.03 inRainLight Rain
4:13 AM62.1 °F61.0 °F96 %30.07 in1.8 miEast (80°)3.5 mph0.04 inRainRain
4:24 AM62.1 °F61.0 °F96 %30.06 in3.0 miCalm0.06 inRainLight Rain
4:38 AM62.1 °F61.0 °F96 %30.06 in1.8 miCalm0.12 inRainRain
4:53 AM62.1 °F60.1 °F93 %30.05 in1.8 miCalm0.17 inRainLight Rain
5:06 AM62.1 °F60.1 °F93 %30.05 in3.0 miCalm0.03 inRainLight Rain
5:23 AM62.1 °F60.1 °F93 %30.04 in3.0 miEast (80°)3.5 mph0.08 inRainRain
5:53 AM62.1 °F60.1 °F93 %30.04 in6.0 miENE (70°)4.6 mph0.11 inRainLight Rain
6:37 AM62.1 °F60.1 °F93 %30.03 in8.0 miEast (90°)5.8 mph0.04 inRainLight Rain
6:53 AM62.1 °F60.1 °F93 %30.04 in5.0 miESE (110°)5.8 mph0.06 inRainLight Rain
7:05 AM62.1 °F61.0 °F96 %30.04 in3.0 miSE (130°)3.5 mph0.04 inRainRain
7:53 AM63.0 °F61.0 °F93 %30.04 in6.0 miSSE (160°)9.2 mph0.09 inRainLight Rain
8:53 AM63.0 °F61.0 °F93 %30.03 in4.0 miCalm0.03 inRainLight Rain
9:34 AM64.0 °F61.0 °F90 %30.01 in5.0 miSE (140°)4.6 mph0.03 inRainLight Rain
9:53 AM64.0 °F61.0 °F90 %30.00 in5.0 miSE (140°)9.2 mph0.04 inRainLight Rain
10:02 AM64.0 °F61.0 °F90 %30.00 in5.0 miSSE (160°)8.1 mph0.00 inRainLight Rain
10:21 AM64.9 °F61.0 °F87 %29.99 in8.0 miSSE (150°)8.1 mph0.01 inOvercast
10:53 AM64.9 °F62.1 °F90 %29.98 in6.0 miSouth (180°)9.2 mph0.01 inRainLight Rain
11:36 AM64.9 °F62.1 °F90 %29.96 in2.0 miSSE (160°)4.6 mph0.04 inRainLight Rain
11:53 AM66.0 °F63.0 °F90 %29.94 in2.5 miSSE (160°)9.2 mph0.08 inRainLight Rain
12:17 PM64.9 °F62.1 °F90 %29.92 in4.0 miSSE (150°)11.5 mph20.7 mph0.04 inRainLight Rain
12:26 PM64.9 °F62.1 °F90 %29.91 in4.0 miSSE (150°)12.7 mph20.7 mph0.04 inRainLight Rain
12:36 PM64.9 °F62.1 °F90 %29.90 in2.0 miSSE (150°)10.4 mph20.7 mph0.06 inRainRain
12:39 PM64.9 °F62.1 °F90 %29.90 in1.2 miSSE (150°)15.0 mph20.7 mph0.07 inRainHeavy Rain
12:51 PM64.4 °F62.6 °F94 %29.89 in2.0 miSSE (150°)12.7 mph20.7 mph0.15 inRainLight Rain
12:53 PM64.9 °F62.1 °F90 %29.89 in2.5 miSSE (150°)10.4 mph20.7 mph0.15 inRainLight Rain
12:56 PM64.9 °F62.1 °F90 %29.89 in4.0 miSSE (160°)11.5 mph20.7 mph0.00 inRainLight Rain
1:04 PM64.9 °F62.1 °F90 %29.89 in8.0 miSE (140°)12.7 mph19.6 mph0.00 inRainLight Rain
1:53 PM66.9 °F64.0 °F90 %29.86 in5.0 miSSE (160°)10.4 mph0.01 inRainLight Rain
2:53 PM69.1 °F66.0 °F90 %29.79 in10.0 miSouth (180°)9.2 mph0.00 inOvercast
3:53 PM71.1 °F66.0 °F84 %29.77 in10.0 miSouth (180°)13.8 mphMostly Cloudy
4:53 PM70.0 °F64.9 °F84 %29.75 in10.0 miSouth (190°)10.4 mphOvercast
5:53 PM69.1 °F64.0 °F84 %29.75 in10.0 miSouth (190°)10.4 mphOvercast
6:22 PM69.1 °F64.0 °F84 %29.73 in10.0 miSouth (180°)8.1 mphOvercast
6:53 PM69.1 °F64.0 °F84 %29.73 in10.0 miSouth (180°)10.4 mphOvercast
7:51 PM66.2 °F62.6 °F88 %29.70 in10.0 miSouth (190°)9.2 mphMostly Cloudy
7:53 PM66.9 °F63.0 °F87 %29.70 in10.0 miSouth (190°)9.2 mphMostly Cloudy
8:35 PM66.9 °F64.0 °F90 %29.68 in10.0 miSSW (200°)11.5 mphScattered Clouds
8:53 PM66.9 °F64.0 °F90 %29.68 in10.0 miSSW (200°)9.2 mphMostly Cloudy
9:39 PM68.0 °F63.0 °F84 %29.67 in10.0 miSSW (210°)17.3 mphScattered Clouds
9:53 PM68.0 °F62.1 °F81 %29.67 in10.0 miSSW (210°)12.7 mph23.0 mphPartly Cloudy
10:53 PM66.9 °F62.1 °F84 %29.66 in10.0 miSSW (200°)13.8 mphScattered Clouds
11:53 PM66.9 °F62.1 °F84 %29.65 in10.0 miSW (220°)13.8 mph25.3 mphMostly Cloudy
Hourly data recorded from KILM, located miles away from Castle Hayne, North Carolina







STORIES FROM OUR PARTNERS